When you browse on this site, cookies collect data to enhance your experience and personalize the content and advertising you see.
Visit our Privacy Policy to learn more. By continuing to use the site, you agree to this use of cookies and data.
  • In Hungary
  • List of Countries
  • For 7 days
  • Water Temperature
  • Satellite Maps
  • Weather Map
  • News
  • Weather Widgets
  • user-avatar
    Login

    Hourly Weather Hawarden

    Today, 15 December, Saturday

    Time Temperature Precipitation Wind Pressure Humidity
    00:00 -1°C° 0 mm 8 mps 756 mmHg 75%
    01:00 -1°C° 0 mm 8 mps 755 mmHg 74%
    02:00 -1°C° 0 mm 8 mps 755 mmHg 73%
    03:00 -1°C° 0 mm 9 mps 754 mmHg 73%
    04:00 -1°C° 0.2 mm 9 mps 753 mmHg 75%
    05:00 -1°C° 0.2 mm 9 mps 753 mmHg 78%
    06:00 -3°C° 0 mm 10 mps 752 mmHg 79%
    07:00 -3°C° 0.2 mm 10 mps 751 mmHg 79%
    08:00 -3°C° 0.2 mm 10 mps 750 mmHg 80%
    09:00 -2°C° 0.2 mm 10 mps 750 mmHg 80%
    10:00 -2°C° 0.2 mm 11 mps 748 mmHg 80%
    11:00 -1°C° 0.2 mm 11 mps 747 mmHg 81%
    12:00 -2°C° 0 mm 12 mps 746 mmHg 82%
    13:00 -2°C° 1.3 mm 12 mps 744 mmHg 83%
    14:00 -1°C° 1.3 mm 12 mps 743 mmHg 85%
    15:00 0°C° 1.3 mm 12 mps 741 mmHg 87%
    16:00 +2°C° 1.1 mm 12 mps 739 mmHg 87%
    17:00 +3°C° 1.1 mm 11 mps 738 mmHg 88%
    18:00 +4°C° 1.1 mm 11 mps 737 mmHg 89%
    19:00 +5°C° 0.2 mm 10 mps 737 mmHg 87%
    20:00 +5°C° 0.2 mm 10 mps 737 mmHg 85%
    21:00 +5°C° 0.2 mm 10 mps 737 mmHg 83%
    22:00 +5°C° 0.6 mm 10 mps 738 mmHg 82%
    23:00 +5°C° 0.6 mm 9 mps 739 mmHg 81%

    Tomorrow, 16 December, Sunday

    Time Temperature Precipitation Wind Pressure Humidity
    00:00 +4°C° 0.6 mm 8 mps 740 mmHg 79%
    01:00 +4°C° 0.1 mm 7 mps 741 mmHg 81%
    02:00 +4°C° 0.1 mm 7 mps 742 mmHg 82%
    03:00 +3°C° 0.1 mm 6 mps 743 mmHg 84%
    04:00 +3°C° 0 mm 5 mps 744 mmHg 85%
    05:00 +3°C° 0 mm 5 mps 744 mmHg 86%
    06:00 +3°C° 0 mm 4 mps 745 mmHg 87%
    07:00 +3°C° 0 mm 4 mps 745 mmHg 88%
    08:00 +3°C° 0 mm 4 mps 745 mmHg 89%
    09:00 +3°C° 0 mm 4 mps 746 mmHg 89%
    10:00 +4°C° 0 mm 4 mps 746 mmHg 87%
    11:00 +5°C° 0 mm 4 mps 746 mmHg 85%
    12:00 +5°C° 0 mm 4 mps 746 mmHg 83%
    13:00 +5°C° 0.1 mm 4 mps 746 mmHg 85%
    14:00 +5°C° 0.1 mm 3 mps 746 mmHg 87%
    15:00 +5°C° 0.1 mm 3 mps 746 mmHg 89%
    16:00 +5°C° 0.3 mm 3 mps 746 mmHg 90%
    17:00 +4°C° 0.3 mm 3 mps 746 mmHg 92%
    18:00 +4°C° 0.3 mm 3 mps 747 mmHg 93%
    19:00 +4°C° 0.1 mm 3 mps 747 mmHg 93%
    20:00 +3°C° 0.1 mm 3 mps 748 mmHg 92%
    21:00 +3°C° 0.1 mm 3 mps 748 mmHg 92%
    22:00 +3°C° 0 mm 3 mps 749 mmHg 91%
    23:00 +3°C° 0 mm 3 mps 749 mmHg 91%

    Day after tomorrow, 17 December, Monday

    Time Temperature Precipitation Wind Pressure Humidity
    00:00 +3°C° 0 mm 3 mps 750 mmHg 90%
    01:00 +3°C° 0 mm 3 mps 750 mmHg 90%
    02:00 +3°C° 0 mm 3 mps 751 mmHg 90%
    03:00 +3°C° 0 mm 3 mps 751 mmHg 90%
    04:00 +3°C° 0 mm 3 mps 751 mmHg 90%
    05:00 +3°C° 0 mm 3 mps 752 mmHg 90%
    06:00 +3°C° 0 mm 3 mps 752 mmHg 90%
    07:00 +3°C° 0 mm 3 mps 752 mmHg 91%
    08:00 +3°C° 0 mm 4 mps 753 mmHg 91%
    09:00 +3°C° 0 mm 4 mps 753 mmHg 91%
    10:00 +4°C° 0 mm 4 mps 753 mmHg 89%
    11:00 +5°C° 0 mm 5 mps 753 mmHg 86%
    12:00 +5°C° 0 mm 6 mps 753 mmHg 84%
    13:00 +7°C° 0 mm 6 mps 752 mmHg 85%
    14:00 +7°C° 0 mm 6 mps 752 mmHg 86%
    15:00 +7°C° 0 mm 6 mps 752 mmHg 87%
    16:00 +8°C° 0.3 mm 7 mps 752 mmHg 87%
    17:00 +8°C° 0.3 mm 7 mps 751 mmHg 88%
    18:00 +8°C° 0.3 mm 7 mps 751 mmHg 88%
    19:00 +8°C° 0 mm 7 mps 751 mmHg 88%
    20:00 +8°C° 0 mm 7 mps 751 mmHg 88%
    21:00 +9°C° 0 mm 7 mps 751 mmHg 87%
    22:00 +9°C° 0.1 mm 8 mps 750 mmHg 87%
    23:00 +9°C° 0.1 mm 8 mps 750 mmHg 86%

    18 December, Tuesday

    Time Temperature Precipitation Wind Pressure Humidity
    00:00 +9°C° 0.1 mm 8 mps 750 mmHg 85%
    01:00 +9°C° 0.1 mm 8 mps 750 mmHg 85%
    02:00 +9°C° 0.1 mm 8 mps 749 mmHg 85%
    03:00 +9°C° 0.1 mm 8 mps 748 mmHg 85%
    04:00 +8°C° 0.1 mm 9 mps 748 mmHg 84%
    05:00 +8°C° 0.1 mm 9 mps 747 mmHg 83%
    06:00 +8°C° 0.1 mm 9 mps 746 mmHg 82%
    07:00 +8°C° 0.1 mm 10 mps 746 mmHg 81%
    08:00 +8°C° 0.1 mm 11 mps 745 mmHg 80%
    09:00 +7°C° 0.1 mm 11 mps 744 mmHg 80%
    10:00 +7°C° 0.6 mm 12 mps 743 mmHg 79%
    11:00 +7°C° 0.6 mm 12 mps 743 mmHg 79%
    12:00 +7°C° 0.6 mm 12 mps 742 mmHg 79%
    13:00 +7°C° 0.5 mm 12 mps 741 mmHg 80%
    14:00 +7°C° 0.5 mm 12 mps 740 mmHg 81%
    15:00 +7°C° 0.5 mm 11 mps 740 mmHg 82%
    16:00 +7°C° 1.3 mm 10 mps 740 mmHg 84%
    17:00 +7°C° 1.3 mm 9 mps 740 mmHg 86%
    18:00 +7°C° 1.3 mm 8 mps 739 mmHg 88%
    19:00 +6°C° 1.4 mm 7 mps 740 mmHg 87%
    20:00 +6°C° 1.4 mm 7 mps 740 mmHg 86%
    21:00 +5°C° 1.4 mm 6 mps 741 mmHg 85%
    22:00 +5°C° 0.3 mm 6 mps 741 mmHg 84%
    23:00 +6°C° 0.3 mm 5 mps 742 mmHg 84%

    19 December, Wednesday

    Time Temperature Precipitation Wind Pressure Humidity
    00:00 +6°C° 0.3 mm 5 mps 743 mmHg 83%
    01:00 +6°C° 0 mm 5 mps 744 mmHg 85%
    02:00 +5°C° 0 mm 5 mps 744 mmHg 86%
    03:00 +5°C° 0 mm 5 mps 745 mmHg 87%
    04:00 +5°C° 0 mm 4 mps 745 mmHg 88%
    05:00 +4°C° 0 mm 4 mps 745 mmHg 88%
    06:00 +4°C° 0 mm 4 mps 746 mmHg 89%
    07:00 +4°C° 0 mm 4 mps 746 mmHg 89%
    08:00 +4°C° 0 mm 4 mps 747 mmHg 89%
    09:00 +4°C° 0 mm 4 mps 747 mmHg 90%
    10:00 +5°C° 0 mm 4 mps 747 mmHg 85%
    11:00 +5°C° 0 mm 5 mps 747 mmHg 81%
    12:00 +6°C° 0 mm 5 mps 748 mmHg 77%
    13:00 +6°C° 0 mm 5 mps 747 mmHg 78%
    14:00 +6°C° 0 mm 5 mps 747 mmHg 79%
    15:00 +6°C° 0 mm 5 mps 747 mmHg 80%
    16:00 +6°C° 0.1 mm 5 mps 748 mmHg 82%
    17:00 +5°C° 0.1 mm 5 mps 748 mmHg 83%
    18:00 +5°C° 0.1 mm 5 mps 748 mmHg 85%
    19:00 +5°C° 0 mm 5 mps 748 mmHg 86%
    20:00 +3°C° 0 mm 5 mps 748 mmHg 87%
    21:00 +3°C° 0 mm 5 mps 748 mmHg 88%
    22:00 +3°C° 0.1 mm 5 mps 748 mmHg 88%
    23:00 +3°C° 0.1 mm 5 mps 748 mmHg 88%

    20 December, Thursday

    Time Temperature Precipitation Wind Pressure Humidity
    00:00 +3°C° 0.1 mm 6 mps 748 mmHg 88%
    01:00 +3°C° 0.3 mm 6 mps 748 mmHg 88%
    02:00 +4°C° 0.3 mm 6 mps 749 mmHg 88%
    03:00 +4°C° 0.3 mm 6 mps 749 mmHg 87%
    04:00 +4°C° 0.2 mm 6 mps 749 mmHg 88%
    05:00 +5°C° 0.2 mm 5 mps 749 mmHg 88%
    06:00 +5°C° 0.2 mm 5 mps 750 mmHg 88%
    07:00 +5°C° 0 mm 5 mps 750 mmHg 88%
    08:00 +5°C° 0 mm 5 mps 751 mmHg 89%
    09:00 +3°C° 0 mm 5 mps 751 mmHg 89%
    10:00 +5°C° 0 mm 5 mps 751 mmHg 86%
    11:00 +6°C° 0 mm 5 mps 752 mmHg 83%
    12:00 +7°C° 0 mm 5 mps 752 mmHg 80%
    13:00 +7°C° 0 mm 5 mps 752 mmHg 81%
    14:00 +6°C° 0 mm 5 mps 752 mmHg 82%
    15:00 +6°C° 0 mm 4 mps 752 mmHg 83%
    16:00 +6°C° 0 mm 4 mps 752 mmHg 85%
    17:00 +5°C° 0 mm 5 mps 751 mmHg 86%
    18:00 +5°C° 0 mm 5 mps 751 mmHg 88%
    19:00 +4°C° 0.4 mm 6 mps 750 mmHg 88%
    20:00 +5°C° 0.4 mm 6 mps 749 mmHg 88%
    21:00 +5°C° 0.4 mm 7 mps 748 mmHg 88%
    22:00 +6°C° 1.1 mm 8 mps 747 mmHg 89%
    23:00 +7°C° 1.1 mm 8 mps 745 mmHg 89%
    Show more